• In Schweiz
  • Länderverzeichnis
  • Für 7 Tage
  • Wassertemperatur
  • Satellitenkarten
  • Wetterkarte
  • Widgets
  • user-avatar
    Anmelden

    Stündliche Wetter Rio de Janeiro

    Heute, 15 November, Donnerstag

    Zeit Temperatur Niederschläge Wind Luftdruck Luftfeuchtigkeit
    00:00 +29°C° 0 mm 2 m/S 755 mmHg 76%
    01:00 +28°C° 0 mm 3 m/S 754 mmHg 77%
    02:00 +28°C° 0 mm 3 m/S 754 mmHg 78%
    03:00 +28°C° 0 mm 3 m/S 753 mmHg 79%
    04:00 +28°C° 0 mm 3 m/S 754 mmHg 78%
    05:00 +28°C° 0 mm 3 m/S 754 mmHg 78%
    06:00 +28°C° 0 mm 3 m/S 754 mmHg 77%
    07:00 +30°C° 0 mm 3 m/S 754 mmHg 71%
    08:00 +33°C° 0 mm 3 m/S 754 mmHg 65%
    09:00 +34°C° 0 mm 3 m/S 754 mmHg 59%
    10:00 +36°C° 0.2 mm 2 m/S 754 mmHg 55%
    11:00 +37°C° 0.2 mm 2 m/S 754 mmHg 50%
    12:00 +39°C° 0.2 mm 2 m/S 754 mmHg 46%
    13:00 +37°C° 0.7 mm 2 m/S 754 mmHg 53%
    14:00 +35°C° 0.7 mm 3 m/S 753 mmHg 61%
    15:00 +33°C° 0.7 mm 3 m/S 753 mmHg 68%
    16:00 +31°C° 0.4 mm 3 m/S 754 mmHg 75%
    17:00 +29°C° 0.4 mm 3 m/S 754 mmHg 81%
    18:00 +28°C° 0.4 mm 3 m/S 754 mmHg 88%
    19:00 +28°C° 0.1 mm 3 m/S 755 mmHg 89%
    20:00 +27°C° 0.1 mm 3 m/S 756 mmHg 90%
    21:00 +27°C° 0.1 mm 3 m/S 756 mmHg 92%
    22:00 +27°C° 0.2 mm 3 m/S 757 mmHg 92%
    23:00 +27°C° 0.2 mm 3 m/S 757 mmHg 93%

    Morgen, 16 November, Freitag

    Zeit Temperatur Niederschläge Wind Luftdruck Luftfeuchtigkeit
    00:00 +27°C° 0.2 mm 3 m/S 757 mmHg 93%
    01:00 +26°C° 0.2 mm 3 m/S 757 mmHg 93%
    02:00 +26°C° 0.2 mm 3 m/S 756 mmHg 94%
    03:00 +26°C° 0.2 mm 3 m/S 756 mmHg 94%
    04:00 +26°C° 0.3 mm 3 m/S 757 mmHg 94%
    05:00 +26°C° 0.3 mm 3 m/S 757 mmHg 95%
    06:00 +26°C° 0.3 mm 3 m/S 758 mmHg 95%
    07:00 +26°C° 0.5 mm 3 m/S 758 mmHg 95%
    08:00 +25°C° 0.5 mm 3 m/S 759 mmHg 95%
    09:00 +25°C° 0.5 mm 3 m/S 759 mmHg 94%
    10:00 +25°C° 0.2 mm 3 m/S 759 mmHg 94%
    11:00 +25°C° 0.2 mm 3 m/S 760 mmHg 94%
    12:00 +25°C° 0.2 mm 3 m/S 760 mmHg 94%
    13:00 +25°C° 0.1 mm 3 m/S 759 mmHg 93%
    14:00 +25°C° 0.1 mm 3 m/S 759 mmHg 93%
    15:00 +25°C° 0.1 mm 3 m/S 759 mmHg 93%
    16:00 +25°C° 0.1 mm 3 m/S 759 mmHg 92%
    17:00 +25°C° 0.1 mm 3 m/S 759 mmHg 92%
    18:00 +25°C° 0.1 mm 2 m/S 759 mmHg 91%
    19:00 +24°C° 0.1 mm 2 m/S 760 mmHg 91%
    20:00 +24°C° 0.1 mm 2 m/S 761 mmHg 91%
    21:00 +24°C° 0.1 mm 2 m/S 761 mmHg 92%
    22:00 +24°C° 0.2 mm 2 m/S 761 mmHg 91%
    23:00 +24°C° 0.2 mm 2 m/S 761 mmHg 91%

    übermorgen, 17 November, Samstag

    Zeit Temperatur Niederschläge Wind Luftdruck Luftfeuchtigkeit
    00:00 +24°C° 0.2 mm 2 m/S 761 mmHg 91%
    01:00 +24°C° 0.3 mm 2 m/S 760 mmHg 91%
    02:00 +24°C° 0.3 mm 2 m/S 760 mmHg 91%
    03:00 +24°C° 0.3 mm 2 m/S 759 mmHg 91%
    04:00 +24°C° 0.3 mm 2 m/S 760 mmHg 92%
    05:00 +24°C° 0.3 mm 2 m/S 760 mmHg 92%
    06:00 +24°C° 0.3 mm 2 m/S 760 mmHg 92%
    07:00 +25°C° 0.2 mm 2 m/S 760 mmHg 90%
    08:00 +26°C° 0.2 mm 2 m/S 761 mmHg 88%
    09:00 +26°C° 0.2 mm 2 m/S 761 mmHg 86%
    10:00 +27°C° 0.1 mm 2 m/S 761 mmHg 84%
    11:00 +28°C° 0.1 mm 2 m/S 760 mmHg 82%
    12:00 +28°C° 0.1 mm 2 m/S 760 mmHg 80%
    13:00 +29°C° 0.1 mm 2 m/S 759 mmHg 77%
    14:00 +30°C° 0.1 mm 2 m/S 759 mmHg 74%
    15:00 +30°C° 0.1 mm 2 m/S 758 mmHg 71%
    16:00 +30°C° 0.1 mm 3 m/S 758 mmHg 76%
    17:00 +29°C° 0.1 mm 3 m/S 759 mmHg 81%
    18:00 +28°C° 0.1 mm 3 m/S 759 mmHg 86%
    19:00 +27°C° 0 mm 3 m/S 759 mmHg 88%
    20:00 +27°C° 0 mm 3 m/S 760 mmHg 89%
    21:00 +26°C° 0 mm 3 m/S 760 mmHg 91%
    22:00 +26°C° 0 mm 3 m/S 760 mmHg 91%
    23:00 +26°C° 0 mm 3 m/S 760 mmHg 91%

    18 November, Sonntag

    Zeit Temperatur Niederschläge Wind Luftdruck Luftfeuchtigkeit
    00:00 +26°C° 0 mm 3 m/S 759 mmHg 90%
    01:00 +26°C° 0 mm 3 m/S 759 mmHg 89%
    02:00 +25°C° 0 mm 3 m/S 758 mmHg 88%
    03:00 +25°C° 0 mm 4 m/S 758 mmHg 87%
    04:00 +26°C° 0 mm 3 m/S 758 mmHg 85%
    05:00 +26°C° 0 mm 3 m/S 758 mmHg 83%
    06:00 +26°C° 0 mm 3 m/S 758 mmHg 81%
    07:00 +28°C° 0 mm 3 m/S 758 mmHg 73%
    08:00 +29°C° 0 mm 4 m/S 758 mmHg 66%
    09:00 +32°C° 0 mm 4 m/S 758 mmHg 58%
    10:00 +33°C° 0 mm 4 m/S 757 mmHg 54%
    11:00 +34°C° 0 mm 4 m/S 757 mmHg 50%
    12:00 +35°C° 0 mm 4 m/S 756 mmHg 46%
    13:00 +35°C° 0 mm 4 m/S 756 mmHg 47%
    14:00 +36°C° 0 mm 3 m/S 755 mmHg 48%
    15:00 +36°C° 0 mm 3 m/S 755 mmHg 48%
    16:00 +34°C° 0 mm 3 m/S 755 mmHg 54%
    17:00 +33°C° 0 mm 3 m/S 755 mmHg 60%
    18:00 +31°C° 0 mm 3 m/S 756 mmHg 65%
    19:00 +30°C° 0 mm 3 m/S 756 mmHg 66%
    20:00 +29°C° 0 mm 3 m/S 756 mmHg 67%
    21:00 +29°C° 0 mm 3 m/S 757 mmHg 68%
    22:00 +29°C° 0 mm 3 m/S 757 mmHg 69%
    23:00 +28°C° 0 mm 2 m/S 756 mmHg 70%

    19 November, Montag

    Zeit Temperatur Niederschläge Wind Luftdruck Luftfeuchtigkeit
    00:00 +28°C° 0 mm 2 m/S 756 mmHg 71%
    01:00 +27°C° 0.1 mm 2 m/S 756 mmHg 74%
    02:00 +27°C° 0.1 mm 2 m/S 755 mmHg 76%
    03:00 +27°C° 0.1 mm 2 m/S 755 mmHg 78%
    04:00 +26°C° 0.7 mm 2 m/S 755 mmHg 81%
    05:00 +26°C° 0.7 mm 2 m/S 755 mmHg 84%
    06:00 +25°C° 0.7 mm 2 m/S 756 mmHg 88%
    07:00 +25°C° 1.1 mm 2 m/S 756 mmHg 88%
    08:00 +26°C° 1.1 mm 1 m/S 757 mmHg 89%
    09:00 +26°C° 1.1 mm 1 m/S 757 mmHg 90%
    10:00 +26°C° 1.2 mm 1 m/S 757 mmHg 89%
    11:00 +26°C° 1.2 mm 1 m/S 757 mmHg 88%
    12:00 +27°C° 1.2 mm 2 m/S 756 mmHg 87%
    13:00 +27°C° 1.3 mm 2 m/S 756 mmHg 89%
    14:00 +26°C° 1.3 mm 2 m/S 756 mmHg 91%
    15:00 +26°C° 1.3 mm 3 m/S 756 mmHg 93%
    16:00 +25°C° 2 mm 3 m/S 756 mmHg 94%
    17:00 +25°C° 2 mm 4 m/S 757 mmHg 95%
    18:00 +25°C° 2 mm 4 m/S 757 mmHg 96%
    19:00 +23°C° 2.2 mm 4 m/S 758 mmHg 96%
    20:00 +23°C° 2.2 mm 5 m/S 758 mmHg 96%
    21:00 +23°C° 2.2 mm 5 m/S 759 mmHg 96%
    22:00 +22°C° 1.9 mm 4 m/S 758 mmHg 96%
    23:00 +22°C° 1.9 mm 4 m/S 758 mmHg 96%

    20 November, Dienstag

    Zeit Temperatur Niederschläge Wind Luftdruck Luftfeuchtigkeit
    00:00 +22°C° 1.9 mm 3 m/S 758 mmHg 96%
    01:00 +22°C° 1.1 mm 3 m/S 758 mmHg 96%
    02:00 +22°C° 1.1 mm 3 m/S 758 mmHg 95%
    03:00 +22°C° 1.1 mm 3 m/S 758 mmHg 95%
    04:00 +22°C° 1.3 mm 3 m/S 758 mmHg 95%
    05:00 +22°C° 1.3 mm 3 m/S 758 mmHg 95%
    06:00 +22°C° 1.3 mm 3 m/S 759 mmHg 95%
    07:00 +22°C° 1.2 mm 3 m/S 759 mmHg 94%
    08:00 +22°C° 1.2 mm 3 m/S 760 mmHg 94%
    09:00 +22°C° 1.2 mm 3 m/S 760 mmHg 93%
    10:00 +24°C° 0.5 mm 2 m/S 760 mmHg 91%
    11:00 +24°C° 0.5 mm 2 m/S 760 mmHg 90%
    12:00 +24°C° 0.5 mm 2 m/S 759 mmHg 88%
    13:00 +24°C° 0.2 mm 2 m/S 759 mmHg 87%
    14:00 +24°C° 0.2 mm 2 m/S 759 mmHg 86%
    15:00 +25°C° 0.2 mm 2 m/S 759 mmHg 84%
    16:00 +24°C° 0.2 mm 2 m/S 759 mmHg 86%
    17:00 +24°C° 0.2 mm 2 m/S 759 mmHg 89%
    18:00 +24°C° 0.2 mm 2 m/S 759 mmHg 91%
    19:00 +23°C° 0.3 mm 1 m/S 760 mmHg 91%
    20:00 +23°C° 0.3 mm 1 m/S 760 mmHg 92%
    21:00 +23°C° 0.3 mm 1 m/S 760 mmHg 93%
    22:00 +21°C° 0.2 mm 0 m/S 760 mmHg 93%
    23:00 +21°C° 0.2 mm 0 m/S 760 mmHg 93%
    Mehr zeigen